• In Schweiz
  • Länderverzeichnis
  • Für 7 Tage
  • Wassertemperatur
  • Satellitenkarten
  • Wetterkarte
  • Widgets
  • user-avatar
    Anmelden

    Stündliche Wetter Novoe

    Heute, 26 September, Mittwoch

    Zeit Temperatur Niederschläge Wind Luftdruck Luftfeuchtigkeit
    00:00 +5°C° 0 mm 4 m/S 748 mmHg 79%
    01:00 +5°C° 0 mm 4 m/S 749 mmHg 80%
    02:00 +5°C° 0 mm 4 m/S 749 mmHg 81%
    03:00 +5°C° 0 mm 4 m/S 750 mmHg 82%
    04:00 +4°C° 0 mm 4 m/S 750 mmHg 84%
    05:00 +4°C° 0 mm 4 m/S 751 mmHg 86%
    06:00 +3°C° 0 mm 4 m/S 751 mmHg 88%
    07:00 +4°C° 0 mm 4 m/S 752 mmHg 84%
    08:00 +5°C° 0 mm 4 m/S 753 mmHg 80%
    09:00 +6°C° 0 mm 4 m/S 753 mmHg 75%
    10:00 +7°C° 0 mm 4 m/S 754 mmHg 69%
    11:00 +8°C° 0 mm 4 m/S 754 mmHg 63%
    12:00 +10°C° 0 mm 4 m/S 754 mmHg 57%
    13:00 +9°C° 0 mm 5 m/S 754 mmHg 55%
    14:00 +10°C° 0 mm 5 m/S 754 mmHg 52%
    15:00 +10°C° 0 mm 5 m/S 754 mmHg 50%
    16:00 +10°C° 0 mm 4 m/S 754 mmHg 54%
    17:00 +9°C° 0 mm 3 m/S 754 mmHg 58%
    18:00 +8°C° 0 mm 3 m/S 754 mmHg 62%
    19:00 +7°C° 0 mm 3 m/S 754 mmHg 63%
    20:00 +7°C° 0 mm 3 m/S 754 mmHg 65%
    21:00 +5°C° 0 mm 4 m/S 754 mmHg 67%
    22:00 +5°C° 0 mm 4 m/S 753 mmHg 66%
    23:00 +5°C° 0 mm 5 m/S 753 mmHg 65%

    Morgen, 27 September, Donnerstag

    Zeit Temperatur Niederschläge Wind Luftdruck Luftfeuchtigkeit
    00:00 +4°C° 0 mm 6 m/S 752 mmHg 65%
    01:00 +5°C° 0 mm 6 m/S 751 mmHg 64%
    02:00 +5°C° 0 mm 7 m/S 750 mmHg 63%
    03:00 +5°C° 0 mm 8 m/S 750 mmHg 63%
    04:00 +5°C° 0.4 mm 8 m/S 748 mmHg 64%
    05:00 +5°C° 0.4 mm 9 m/S 747 mmHg 64%
    06:00 +5°C° 0.4 mm 10 m/S 746 mmHg 65%
    07:00 +5°C° 0.9 mm 10 m/S 746 mmHg 68%
    08:00 +4°C° 0.9 mm 11 m/S 745 mmHg 71%
    09:00 +4°C° 0.9 mm 11 m/S 744 mmHg 74%
    10:00 +4°C° 0.7 mm 11 m/S 744 mmHg 77%
    11:00 +6°C° 0.7 mm 10 m/S 743 mmHg 79%
    12:00 +6°C° 0.7 mm 10 m/S 743 mmHg 81%
    13:00 +7°C° 0.2 mm 10 m/S 743 mmHg 80%
    14:00 +7°C° 0.2 mm 9 m/S 743 mmHg 80%
    15:00 +8°C° 0.2 mm 9 m/S 743 mmHg 79%
    16:00 +9°C° 0.1 mm 8 m/S 743 mmHg 77%
    17:00 +9°C° 0.1 mm 7 m/S 744 mmHg 76%
    18:00 +8°C° 0.1 mm 6 m/S 744 mmHg 75%
    19:00 +8°C° 0 mm 6 m/S 744 mmHg 77%
    20:00 +8°C° 0 mm 5 m/S 745 mmHg 79%
    21:00 +7°C° 0 mm 5 m/S 745 mmHg 81%
    22:00 +7°C° 0 mm 5 m/S 745 mmHg 82%
    23:00 +7°C° 0 mm 5 m/S 746 mmHg 83%

    übermorgen, 28 September, Freitag

    Zeit Temperatur Niederschläge Wind Luftdruck Luftfeuchtigkeit
    00:00 +7°C° 0 mm 5 m/S 746 mmHg 85%
    01:00 +6°C° 0 mm 5 m/S 746 mmHg 86%
    02:00 +6°C° 0 mm 5 m/S 746 mmHg 87%
    03:00 +6°C° 0 mm 5 m/S 746 mmHg 88%
    04:00 +6°C° 0 mm 5 m/S 745 mmHg 89%
    05:00 +5°C° 0 mm 6 m/S 745 mmHg 89%
    06:00 +5°C° 0 mm 6 m/S 744 mmHg 90%
    07:00 +6°C° 0 mm 7 m/S 744 mmHg 86%
    08:00 +8°C° 0 mm 9 m/S 743 mmHg 81%
    09:00 +9°C° 0 mm 10 m/S 743 mmHg 76%
    10:00 +11°C° 0 mm 10 m/S 743 mmHg 76%
    11:00 +11°C° 0 mm 10 m/S 742 mmHg 75%
    12:00 +12°C° 0 mm 11 m/S 742 mmHg 75%
    13:00 +12°C° 0 mm 10 m/S 742 mmHg 75%
    14:00 +12°C° 0 mm 10 m/S 741 mmHg 76%
    15:00 +13°C° 0 mm 10 m/S 741 mmHg 77%
    16:00 +13°C° 0.2 mm 9 m/S 741 mmHg 79%
    17:00 +13°C° 0.2 mm 9 m/S 741 mmHg 80%
    18:00 +13°C° 0.2 mm 8 m/S 741 mmHg 82%
    19:00 +12°C° 0.4 mm 8 m/S 742 mmHg 81%
    20:00 +11°C° 0.4 mm 7 m/S 743 mmHg 81%
    21:00 +10°C° 0.4 mm 6 m/S 744 mmHg 80%
    22:00 +8°C° 0 mm 5 m/S 745 mmHg 81%
    23:00 +7°C° 0 mm 4 m/S 746 mmHg 82%

    29 September, Samstag

    Zeit Temperatur Niederschläge Wind Luftdruck Luftfeuchtigkeit
    00:00 +5°C° 0 mm 3 m/S 746 mmHg 83%
    01:00 +5°C° 0 mm 3 m/S 747 mmHg 85%
    02:00 +5°C° 0 mm 2 m/S 748 mmHg 86%
    03:00 +5°C° 0 mm 2 m/S 748 mmHg 87%
    04:00 +5°C° 0 mm 2 m/S 749 mmHg 87%
    05:00 +4°C° 0 mm 2 m/S 749 mmHg 87%
    06:00 +4°C° 0 mm 2 m/S 750 mmHg 87%
    07:00 +5°C° 0 mm 2 m/S 750 mmHg 82%
    08:00 +6°C° 0 mm 2 m/S 751 mmHg 76%
    09:00 +8°C° 0 mm 2 m/S 751 mmHg 71%
    10:00 +9°C° 0 mm 2 m/S 751 mmHg 66%
    11:00 +10°C° 0 mm 2 m/S 751 mmHg 61%
    12:00 +12°C° 0 mm 2 m/S 752 mmHg 55%
    13:00 +12°C° 0 mm 2 m/S 752 mmHg 54%
    14:00 +13°C° 0 mm 2 m/S 752 mmHg 52%
    15:00 +13°C° 0 mm 2 m/S 752 mmHg 51%
    16:00 +12°C° 0 mm 2 m/S 752 mmHg 54%
    17:00 +10°C° 0 mm 2 m/S 752 mmHg 58%
    18:00 +11°C° 0 mm 1 m/S 752 mmHg 61%
    19:00 +10°C° 0 mm 1 m/S 753 mmHg 62%
    20:00 +9°C° 0 mm 2 m/S 753 mmHg 63%
    21:00 +8°C° 0 mm 2 m/S 754 mmHg 63%
    22:00 +8°C° 0 mm 2 m/S 754 mmHg 63%
    23:00 +7°C° 0 mm 2 m/S 754 mmHg 63%

    30 September, Sonntag

    Zeit Temperatur Niederschläge Wind Luftdruck Luftfeuchtigkeit
    00:00 +7°C° 0 mm 2 m/S 754 mmHg 63%
    01:00 +6°C° 0 mm 2 m/S 754 mmHg 63%
    02:00 +5°C° 0 mm 2 m/S 755 mmHg 63%
    03:00 +5°C° 0 mm 2 m/S 755 mmHg 64%
    04:00 +5°C° 0 mm 2 m/S 755 mmHg 64%
    05:00 +5°C° 0 mm 1 m/S 755 mmHg 64%
    06:00 +5°C° 0 mm 1 m/S 756 mmHg 64%
    07:00 +6°C° 0 mm 1 m/S 756 mmHg 61%
    08:00 +7°C° 0 mm 1 m/S 756 mmHg 57%
    09:00 +8°C° 0 mm 1 m/S 756 mmHg 54%
    10:00 +9°C° 0 mm 1 m/S 756 mmHg 51%
    11:00 +11°C° 0 mm 1 m/S 756 mmHg 47%
    12:00 +12°C° 0 mm 1 m/S 756 mmHg 44%
    13:00 +12°C° 0 mm 1 m/S 756 mmHg 44%
    14:00 +12°C° 0 mm 2 m/S 756 mmHg 43%
    15:00 +13°C° 0 mm 2 m/S 756 mmHg 43%
    16:00 +12°C° 0 mm 1 m/S 755 mmHg 47%
    17:00 +11°C° 0 mm 1 m/S 755 mmHg 52%
    18:00 +10°C° 0 mm 1 m/S 755 mmHg 56%
    19:00 +9°C° 0 mm 1 m/S 755 mmHg 59%
    20:00 +9°C° 0 mm 1 m/S 755 mmHg 61%
    21:00 +8°C° 0 mm 1 m/S 755 mmHg 63%
    22:00 +7°C° 0 mm 2 m/S 755 mmHg 66%
    23:00 +7°C° 0 mm 2 m/S 755 mmHg 68%

    1 Oktober, Montag

    Zeit Temperatur Niederschläge Wind Luftdruck Luftfeuchtigkeit
    00:00 +6°C° 0 mm 2 m/S 755 mmHg 70%
    01:00 +6°C° 0 mm 2 m/S 755 mmHg 73%
    02:00 +6°C° 0 mm 2 m/S 755 mmHg 75%
    03:00 +6°C° 0 mm 2 m/S 755 mmHg 78%
    04:00 +5°C° 0 mm 2 m/S 755 mmHg 79%
    05:00 +5°C° 0 mm 2 m/S 755 mmHg 81%
    06:00 +5°C° 0 mm 2 m/S 754 mmHg 83%
    07:00 +5°C° 0 mm 3 m/S 754 mmHg 78%
    08:00 +7°C° 0 mm 3 m/S 754 mmHg 73%
    09:00 +9°C° 0 mm 3 m/S 754 mmHg 67%
    10:00 +10°C° 0 mm 3 m/S 754 mmHg 61%
    11:00 +11°C° 0 mm 4 m/S 754 mmHg 56%
    12:00 +13°C° 0 mm 4 m/S 754 mmHg 50%
    13:00 +13°C° 0 mm 4 m/S 754 mmHg 49%
    14:00 +13°C° 0 mm 4 m/S 754 mmHg 48%
    15:00 +14°C° 0 mm 4 m/S 753 mmHg 47%
    16:00 +13°C° 0 mm 4 m/S 753 mmHg 52%
    17:00 +11°C° 0 mm 3 m/S 753 mmHg 57%
    18:00 +10°C° 0 mm 2 m/S 753 mmHg 62%
    19:00 +10°C° 0 mm 2 m/S 753 mmHg 64%
    20:00 +9°C° 0 mm 2 m/S 753 mmHg 66%
    21:00 +9°C° 0 mm 2 m/S 753 mmHg 68%
    22:00 +8°C° 0 mm 2 m/S 753 mmHg 69%
    23:00 +8°C° 0 mm 2 m/S 753 mmHg 70%
    Mehr zeigen